Time,TemperatureF,DewpointF,PressureIn,WindDirection,WindDirectionDegrees,WindSpeedMPH,WindSpeedGustMPH,Humidity,HourlyPrecipIn,Conditions,Clouds,dailyrainin,SoftwareType,DateUTC
2013-02-05 00:05:00,14.8,12.0,29.91,South,175,3.0,6.0,90,0.00,,,0.00,weatherlink.com 1.10,2013-02-05 06:05:00,
2013-02-05 00:21:00,15.4,13.0,29.91,South,180,0.0,7.0,90,0.00,,,0.00,weatherlink.com 1.10,2013-02-05 06:21:00,
2013-02-05 00:35:00,16.0,14.0,29.90,SSE,167,2.0,5.0,90,0.00,,,0.00,weatherlink.com 1.10,2013-02-05 06:35:00,
2013-02-05 00:51:00,16.4,14.0,29.88,SSE,157,2.0,8.0,90,0.00,,,0.00,weatherlink.com 1.10,2013-02-05 06:51:00,
2013-02-05 01:06:00,16.9,15.0,29.88,South,182,0.0,4.0,90,0.00,,,0.00,weatherlink.com 1.10,2013-02-05 07:06:00,
2013-02-05 01:21:00,18.1,16.0,29.87,SSW,196,2.0,8.0,90,0.00,,,0.00,weatherlink.com 1.10,2013-02-05 07:21:00,
2013-02-05 01:36:00,18.6,16.0,29.86,South,188,2.0,7.0,89,0.00,,,0.00,weatherlink.com 1.10,2013-02-05 07:36:00,
2013-02-05 01:51:00,19.0,16.0,29.86,SSW,203,1.0,7.0,89,0.00,,,0.00,weatherlink.com 1.10,2013-02-05 07:51:00,
2013-02-05 02:06:00,19.4,17.0,29.86,South,171,1.0,6.0,89,0.00,,,0.00,weatherlink.com 1.10,2013-02-05 08:06:00,
2013-02-05 02:21:00,20.2,18.0,29.85,SSW,196,0.0,5.0,89,0.00,,,0.00,weatherlink.com 1.10,2013-02-05 08:21:00,
2013-02-05 02:36:00,21.0,18.0,29.85,SW,215,3.0,7.0,89,0.00,,,0.00,weatherlink.com 1.10,2013-02-05 08:36:00,
2013-02-05 02:51:00,21.5,19.0,29.85,SSW,196,1.0,6.0,89,0.00,,,0.00,weatherlink.com 1.10,2013-02-05 08:51:00,
2013-02-05 03:06:00,21.7,19.0,29.85,SW,232,1.0,7.0,88,0.00,,,0.00,weatherlink.com 1.10,2013-02-05 09:06:00,
2013-02-05 03:21:00,21.8,19.0,29.83,SSW,202,1.0,9.0,88,0.00,,,0.00,weatherlink.com 1.10,2013-02-05 09:21:00,
2013-02-05 03:36:00,21.8,19.0,29.83,SW,221,1.0,7.0,88,0.00,,,0.00,weatherlink.com 1.10,2013-02-05 09:36:00,
2013-02-05 03:51:00,21.8,19.0,29.83,SSW,202,2.0,6.0,88,0.00,,,0.00,weatherlink.com 1.10,2013-02-05 09:51:00,
2013-02-05 04:06:00,21.8,19.0,29.83,SSW,202,1.0,5.0,88,0.00,,,0.00,weatherlink.com 1.10,2013-02-05 10:06:00,
2013-02-05 04:21:00,22.1,19.0,29.83,SW,221,1.0,4.0,89,0.00,,,0.00,weatherlink.com 1.10,2013-02-05 10:21:00,
2013-02-05 04:36:00,22.5,20.0,29.82,SSW,209,2.0,5.0,88,0.00,,,0.00,weatherlink.com 1.10,2013-02-05 10:36:00,
2013-02-05 04:51:00,22.9,20.0,29.83,SW,226,0.0,4.0,90,0.00,,,0.00,weatherlink.com 1.10,2013-02-05 10:51:00,
2013-02-05 05:06:00,23.2,21.0,29.82,SW,228,2.0,7.0,91,0.00,,,0.00,weatherlink.com 1.10,2013-02-05 11:06:00,
2013-02-05 05:21:00,23.1,21.0,29.81,SW,217,0.0,4.0,92,0.00,,,0.00,weatherlink.com 1.10,2013-02-05 11:21:00,
2013-02-05 05:36:00,23.3,22.0,29.82,SW,233,0.0,3.0,93,0.00,,,0.00,weatherlink.com 1.10,2013-02-05 11:36:00,
2013-02-05 05:51:00,23.5,22.0,29.81,WSW,244,0.0,5.0,94,0.00,,,0.00,weatherlink.com 1.10,2013-02-05 11:51:00,
2013-02-05 06:06:00,23.8,22.0,29.82,SSW,211,0.0,4.0,94,0.00,,,0.00,weatherlink.com 1.10,2013-02-05 12:06:00,
2013-02-05 06:22:00,24.0,23.0,29.82,WSW,248,1.0,3.0,94,0.00,,,0.00,weatherlink.com 1.10,2013-02-05 12:22:00,
2013-02-05 06:36:00,24.3,23.0,29.84,West,280,0.0,4.0,94,0.00,,,0.00,weatherlink.com 1.10,2013-02-05 12:36:00,
2013-02-05 06:51:00,24.4,23.0,29.83,West,269,0.0,1.0,94,0.00,,,0.00,weatherlink.com 1.10,2013-02-05 12:51:00,
2013-02-05 07:06:00,24.6,23.0,29.84,SW,227,0.0,2.0,94,0.00,,,0.00,weatherlink.com 1.10,2013-02-05 13:06:00,
2013-02-05 07:22:00,24.8,23.0,29.85,WSW,248,2.0,3.0,94,0.00,,,0.00,weatherlink.com 1.10,2013-02-05 13:22:00,
2013-02-05 07:36:00,25.2,24.0,29.85,WSW,244,0.0,3.0,95,0.00,,,0.00,weatherlink.com 1.10,2013-02-05 13:36:00,
2013-02-05 07:52:00,25.8,25.0,29.86,West,264,0.0,3.0,95,0.00,,,0.00,weatherlink.com 1.10,2013-02-05 13:52:00,
2013-02-05 08:21:00,26.7,25.0,29.87,West,269,0.0,3.0,94,0.00,,,0.00,weatherlink.com 1.10,2013-02-05 14:21:00,
2013-02-05 08:36:00,27.1,25.0,29.88,West,276,2.0,2.0,93,0.00,,,0.00,weatherlink.com 1.10,2013-02-05 14:36:00,
2013-02-05 08:52:00,27.6,26.0,29.88,West,281,2.0,4.0,92,0.00,,,0.00,weatherlink.com 1.10,2013-02-05 14:52:00,
2013-02-05 09:07:00,28.1,26.0,29.89,NW,313,0.0,5.0,90,0.00,,,0.00,weatherlink.com 1.10,2013-02-05 15:07:00,
2013-02-05 09:22:00,28.4,26.0,29.90,WNW,283,2.0,5.0,89,0.00,,,0.00,weatherlink.com 1.10,2013-02-05 15:22:00,
2013-02-05 09:52:00,28.7,25.0,29.92,NNW,328,2.0,12.0,84,0.00,,,0.00,weatherlink.com 1.10,2013-02-05 15:52:00,
2013-02-05 10:07:00,28.8,25.0,29.93,NW,315,2.0,8.0,84,0.00,,,0.00,weatherlink.com 1.10,2013-02-05 16:07:00,
2013-02-05 10:22:00,28.9,24.0,29.94,NW,325,6.0,8.0,83,0.00,,,0.00,weatherlink.com 1.10,2013-02-05 16:22:00,
2013-02-05 10:37:00,28.9,24.0,29.95,NW,326,0.0,11.0,83,0.00,,,0.00,weatherlink.com 1.10,2013-02-05 16:37:00,
2013-02-05 10:52:00,29.0,25.0,29.96,NNW,338,0.0,6.0,83,0.00,,,0.00,weatherlink.com 1.10,2013-02-05 16:52:00,
2013-02-05 11:07:00,29.0,25.0,29.97,NW,306,4.0,7.0,83,0.00,,,0.00,weatherlink.com 1.10,2013-02-05 17:07:00,
2013-02-05 11:22:00,28.7,24.0,29.98,NW,313,5.0,7.0,83,0.00,,,0.00,weatherlink.com 1.10,2013-02-05 17:22:00,
2013-02-05 11:37:00,28.5,24.0,29.99,NNW,342,4.0,8.0,83,0.00,,,0.00,weatherlink.com 1.10,2013-02-05 17:37:00,
2013-02-05 11:52:00,28.4,24.0,29.99,NNW,345,6.0,10.0,83,0.00,,,0.00,weatherlink.com 1.10,2013-02-05 17:52:00,
2013-02-05 12:07:00,28.2,23.0,29.99,North,5,2.0,10.0,82,0.00,,,0.00,weatherlink.com 1.10,2013-02-05 18:07:00,
2013-02-05 12:22:00,28.1,23.0,30.00,NW,316,9.0,10.0,81,0.00,,,0.00,weatherlink.com 1.10,2013-02-05 18:22:00,
2013-02-05 12:37:00,28.1,22.0,30.01,NNE,18,8.0,12.0,79,0.00,,,0.00,weatherlink.com 1.10,2013-02-05 18:37:00,
2013-02-05 12:52:00,28.4,22.0,30.01,NNW,331,4.0,9.0,78,0.00,,,0.00,weatherlink.com 1.10,2013-02-05 18:52:00,
2013-02-05 13:07:00,28.2,21.0,30.02,NNW,333,0.0,13.0,75,0.00,,,0.00,weatherlink.com 1.10,2013-02-05 19:07:00,
2013-02-05 13:22:00,28.5,21.0,30.02,NNW,335,4.0,8.0,74,0.00,,,0.00,weatherlink.com 1.10,2013-02-05 19:22:00,
2013-02-05 13:37:00,28.6,21.0,30.03,NNE,16,4.0,10.0,73,0.00,,,0.00,weatherlink.com 1.10,2013-02-05 19:37:00,
2013-02-05 13:52:00,29.0,21.0,30.04,North,360,2.0,9.0,73,0.00,,,0.00,weatherlink.com 1.10,2013-02-05 19:52:00,
2013-02-05 14:07:00,28.8,21.0,30.05,NNE,31,3.0,8.0,72,0.00,,,0.00,weatherlink.com 1.10,2013-02-05 20:07:00,
2013-02-05 14:22:00,28.7,20.0,30.06,North,351,3.0,9.0,71,0.00,,,0.00,weatherlink.com 1.10,2013-02-05 20:22:00,
2013-02-05 14:37:00,28.6,20.0,30.06,NNW,333,4.0,7.0,71,0.00,,,0.00,weatherlink.com 1.10,2013-02-05 20:37:00,
2013-02-05 14:52:00,28.5,20.0,30.07,NW,317,3.0,9.0,71,0.00,,,0.00,weatherlink.com 1.10,2013-02-05 20:52:00,
2013-02-05 15:07:00,28.4,20.0,30.07,NNE,20,3.0,8.0,70,0.00,,,0.00,weatherlink.com 1.10,2013-02-05 21:07:00,
2013-02-05 15:22:00,28.5,20.0,30.08,NW,317,4.0,8.0,69,0.00,,,0.00,weatherlink.com 1.10,2013-02-05 21:22:00,
2013-02-05 15:37:00,28.5,18.0,30.09,NNW,348,3.0,7.0,64,0.00,,,0.00,weatherlink.com 1.10,2013-02-05 21:37:00,
2013-02-05 15:54:00,28.5,18.0,30.09,NNW,327,2.0,8.0,64,0.00,,,0.00,weatherlink.com 1.10,2013-02-05 21:54:00,
2013-02-05 16:22:00,28.1,18.0,30.10,WNW,286,4.0,7.0,66,0.00,,,0.00,weatherlink.com 1.10,2013-02-05 22:22:00,
2013-02-05 16:37:00,27.1,17.0,30.11,West,278,3.0,7.0,66,0.00,,,0.00,weatherlink.com 1.10,2013-02-05 22:37:00,
2013-02-05 16:53:00,26.5,17.0,30.12,West,267,3.0,6.0,67,0.00,,,0.00,weatherlink.com 1.10,2013-02-05 22:53:00,
2013-02-05 17:08:00,25.4,16.0,30.12,NW,319,1.0,6.0,67,0.00,,,0.00,weatherlink.com 1.10,2013-02-05 23:08:00,
2013-02-05 17:23:00,24.5,15.0,30.13,WNW,284,1.0,6.0,68,0.00,,,0.00,weatherlink.com 1.10,2013-02-05 23:23:00,
2013-02-05 17:38:00,23.9,15.0,30.14,WNW,288,0.0,5.0,68,0.00,,,0.00,weatherlink.com 1.10,2013-02-05 23:38:00,
2013-02-05 18:08:00,23.0,15.0,30.14,West,280,0.0,4.0,70,0.00,,,0.00,weatherlink.com 1.10,2013-02-06 00:08:00,
2013-02-05 18:23:00,22.7,14.0,30.15,West,280,0.0,0.0,70,0.00,,,0.00,weatherlink.com 1.10,2013-02-06 00:23:00,
2013-02-05 18:38:00,22.2,14.0,30.15,NNW,335,0.0,3.0,70,0.00,,,0.00,weatherlink.com 1.10,2013-02-06 00:38:00,
2013-02-05 18:53:00,22.0,14.0,30.16,NW,311,0.0,1.0,71,0.00,,,0.00,weatherlink.com 1.10,2013-02-06 00:53:00,
2013-02-05 19:08:00,21.6,14.0,30.17,NW,312,0.0,0.0,71,0.00,,,0.00,weatherlink.com 1.10,2013-02-06 01:08:00,
2013-02-05 19:24:00,21.3,13.0,30.17,NW,315,0.0,2.0,70,0.00,,,0.00,weatherlink.com 1.10,2013-02-06 01:24:00,
2013-02-05 19:38:00,21.1,13.0,30.18,NW,314,0.0,2.0,71,0.00,,,0.00,weatherlink.com 1.10,2013-02-06 01:38:00,
2013-02-05 19:53:00,20.6,13.0,30.18,NW,314,0.0,1.0,71,0.00,,,0.00,weatherlink.com 1.10,2013-02-06 01:53:00,
2013-02-05 20:08:00,19.8,12.0,30.18,NW,314,0.0,0.0,73,0.00,,,0.00,weatherlink.com 1.10,2013-02-06 02:08:00,
2013-02-05 20:23:00,19.4,12.0,30.18,NW,314,0.0,0.0,74,0.00,,,0.00,weatherlink.com 1.10,2013-02-06 02:23:00,
2013-02-05 20:38:00,18.3,12.0,30.18,NW,314,0.0,0.0,76,0.00,,,0.00,weatherlink.com 1.10,2013-02-06 02:38:00,
2013-02-05 20:53:00,16.8,11.0,30.20,NW,314,0.0,0.0,78,0.00,,,0.00,weatherlink.com 1.10,2013-02-06 02:53:00,
2013-02-05 21:08:00,16.1,11.0,30.20,NW,314,0.0,1.0,81,0.00,,,0.00,weatherlink.com 1.10,2013-02-06 03:08:00,
2013-02-05 21:23:00,16.7,12.0,30.20,NW,314,0.0,1.0,82,0.00,,,0.00,weatherlink.com 1.10,2013-02-06 03:23:00,
2013-02-05 21:38:00,17.5,13.0,30.21,WNW,289,0.0,1.0,81,0.00,,,0.00,weatherlink.com 1.10,2013-02-06 03:38:00,
2013-02-05 21:53:00,16.6,12.0,30.22,WNW,289,0.0,1.0,83,0.00,,,0.00,weatherlink.com 1.10,2013-02-06 03:53:00,
2013-02-05 22:08:00,15.8,12.0,30.21,WNW,289,0.0,0.0,84,0.00,,,0.00,weatherlink.com 1.10,2013-02-06 04:08:00,
2013-02-05 22:23:00,15.4,11.0,30.20,WNW,289,0.0,0.0,84,0.00,,,0.00,weatherlink.com 1.10,2013-02-06 04:23:00,
2013-02-05 22:38:00,14.6,11.0,30.20,WNW,289,0.0,0.0,84,0.00,,,0.00,weatherlink.com 1.10,2013-02-06 04:38:00,
2013-02-05 22:53:00,13.6,11.0,30.21,WNW,288,0.0,0.0,87,0.00,,,0.00,weatherlink.com 1.10,2013-02-06 04:53:00,
2013-02-05 23:08:00,13.4,10.0,30.21,WNW,288,0.0,0.0,87,0.00,,,0.00,weatherlink.com 1.10,2013-02-06 05:08:00,
2013-02-05 23:23:00,13.1,10.0,30.20,WNW,288,0.0,0.0,87,0.00,,,0.00,weatherlink.com 1.10,2013-02-06 05:23:00,
2013-02-05 23:38:00,12.6,10.0,30.21,WNW,288,0.0,0.0,87,0.00,,,0.00,weatherlink.com 1.10,2013-02-06 05:38:00,
2013-02-05 23:54:00,11.9,9.0,30.22,WNW,288,0.0,0.0,87,0.00,,,0.00,weatherlink.com 1.10,2013-02-06 05:54:00,